User: anonymous   Login
Location: Santa Barbara
(34.4500°N, 119.7700°W)
Time: 22:54:59
(UTC-08:00)
Language:

Cosmos 1626 Rocket - Orbit

View from above orbital plane
View from above orbital plane
View from above satellite
View from above satellite

Ground track
Ground track

The orbit data is extracted from the following two-line orbital elements,

1 15495U 85009B   17016.44115522  .00000062  00000-0  45425-5 0  9998
2 15495  82.5261 329.6006 0021632 109.3154 251.0403 14.83749117727469
Epoch (UTC): 16 January 2017 10:35:15
Eccentricity: 0.0021632
inclination: 82.5261°
perigee height: 602 km
apogee height: 632 km
right ascension of ascending node: 329.6006°
argument of perigee: 109.3154°
revolutions per day: 14.83749117
mean anomaly at epoch: 251.0403°
orbit number at epoch: 72746

The dashed part of the orbit path shows where the satellite is in the earth's shadow,  

DLR